Columbia, SC

1:08 AM EDT on June 23, 2017 (GMT -0400)
Columbia Metro

Weather History for KCAE - June, 2013

Change the Weather History Date:

Saturday, June 22, 2013

  Actual Average Record
Temperature  
Mean Temperature 78 °F 80 °F  
Max Temperature 88 °F 91 °F 101 °F (1956)
Min Temperature 68 °F 70 °F 58 °F (1966)
Degree Days  
Heating Degree Days 0 0  
Month to date heating degree days 0 0  
Since 1 June heating degree days 0 0  
Since 1 July heating degree days 2261 2551  
Cooling Degree Days 13 15  
Month to date cooling degree days 304 295  
Year to date cooling degree days 624 616  
Since 1 June cooling degree days 304 295  
Growing Degree Days 28 (Base 50)    
Moisture  
Dew Point 66 °F    
Average Humidity 64    
Maximum Humidity 79    
Minimum Humidity 48    
Precipitation  
Precipitation 0.00 in 0.17 in 2.68 in (1973)
Month to date precipitation 4.06 3.43  
Year to date precipitation 22.68 19.94  
Sea Level Pressure  
Sea Level Pressure 30.15 in    
Wind  
Wind Speed 4 mph (NNE)    
Max Wind Speed 12 mph    
Max Gust Speed 21 mph    
Visibility 10 miles    
Events      
T = Trace of Precipitation, MM = Missing Value Source: NWS Daily Summary

Daily Weather History Graph

Daily Weather History Graph

Search for Another Location

Airport or City:

Trip Planner

Search our weather history database for the weather conditions in past years. The results will help you decide how hot, cold, wet, or windy it might be!

Date:

Astronomy

Jun. 22, 2013 Rise Set
Actual Time 6:14 AM EDT 8:39 PM EDT
Civil Twilight 5:44 AM EDT 9:08 PM EDT
Nautical Twilight 5:08 AM EDT 9:44 PM EDT
Astronomical Twilight 4:29 AM EDT 10:23 PM EDT
Moon 7:55 PM EDT (6/22) 5:22 AM EDT (6/22)
Length of Visible Light 15h 23m
Length of Day
14h 24m
Waxing Gibbous, 99% of the Moon is Illuminated
Jun 22
Waxing Gibbous
Jun 23
Full
Jun 30
Last Quarter
Jul 8
New
Jul 15
First Quarter

Hourly Weather History & Observations

Time (EDT) Temp. Heat Index Dew Point Humidity Pressure Visibility Wind Dir Wind Speed Gust Speed Precip Events Conditions
12:56 AM 73.9 °F - 59.0 °F 59% 30.16 in 10.0 mi NNE 3.5 mph - N/A   Clear
1:56 AM 72.0 °F - 60.1 °F 66% 30.16 in 10.0 mi NNE 4.6 mph - N/A   Clear
2:56 AM 71.1 °F - 60.1 °F 68% 30.15 in 10.0 mi Calm Calm - N/A   Clear
3:56 AM 71.1 °F - 61.0 °F 70% 30.13 in 10.0 mi NNE 3.5 mph - N/A   Clear
4:56 AM 69.1 °F - 61.0 °F 75% 30.14 in 10.0 mi Calm Calm - N/A   Clear
5:56 AM 69.1 °F - 61.0 °F 75% 30.15 in 10.0 mi Variable 3.5 mph - N/A   Scattered Clouds
6:56 AM 69.1 °F - 61.0 °F 75% 30.17 in 10.0 mi NNE 4.6 mph - N/A   Scattered Clouds
7:56 AM 72.0 °F - 64.0 °F 76% 30.19 in 10.0 mi NNE 5.8 mph - N/A   Mostly Cloudy
8:56 AM 75.9 °F - 66.9 °F 74% 30.18 in 10.0 mi NE 8.1 mph - N/A   Scattered Clouds
9:56 AM 79.0 °F - 68.0 °F 69% 30.17 in 10.0 mi NE 6.9 mph - N/A   Scattered Clouds
10:56 AM 81.0 °F 83.8 °F 68.0 °F 65% 30.17 in 10.0 mi ENE 5.8 mph - N/A   Mostly Cloudy
11:56 AM 82.9 °F 85.4 °F 66.9 °F 58% 30.18 in 10.0 mi NNE 6.9 mph - N/A   Mostly Cloudy
12:56 PM 82.9 °F 85.8 °F 68.0 °F 60% 30.17 in 10.0 mi North 4.6 mph - N/A   Mostly Cloudy
1:56 PM 84.9 °F 88.2 °F 68.0 °F 57% 30.17 in 10.0 mi NNE 8.1 mph - N/A   Mostly Cloudy
2:56 PM 84.9 °F 87.6 °F 66.9 °F 55% 30.15 in 10.0 mi NNW 5.8 mph - N/A   Mostly Cloudy
3:56 PM 87.1 °F 89.9 °F 66.9 °F 51% 30.12 in 10.0 mi NE 5.8 mph - N/A   Mostly Cloudy
4:56 PM 87.1 °F 89.9 °F 66.9 °F 51% 30.11 in 10.0 mi NNE 4.6 mph - N/A   Mostly Cloudy
5:56 PM 88.0 °F 90.3 °F 66.0 °F 48% 30.10 in 10.0 mi North 5.8 mph - N/A   Mostly Cloudy
6:56 PM 86.0 °F 87.6 °F 64.9 °F 49% 30.09 in 10.0 mi ENE 6.9 mph - N/A   Mostly Cloudy
7:56 PM 82.9 °F 87.0 °F 70.0 °F 65% 30.10 in 10.0 mi SE 8.1 mph - N/A   Mostly Cloudy
8:56 PM 81.0 °F 84.1 °F 69.1 °F 67% 30.11 in 10.0 mi South 4.6 mph - N/A   Mostly Cloudy
9:56 PM 80.1 °F 83.6 °F 71.1 °F 74% 30.12 in 10.0 mi Calm Calm - N/A   Mostly Cloudy
10:56 PM 80.1 °F 83.6 °F 71.1 °F 74% 30.14 in 10.0 mi Calm Calm - N/A   Mostly Cloudy
11:56 PM 78.1 °F - 71.1 °F 79% 30.14 in 10.0 mi Calm Calm - N/A   Mostly Cloudy